BEIDOU-3 M15

Last updated on Wed May 15 2019 03:07:46 GMT+0000 (Coordinated Universal Time)

1 43647U 18078A 19134.16977692 -.00000101 00000-0 10000-3 0 9990 2 43647 55.0959 29.3855 0007948 336.0614 343.3633 1.86232995 3915

Satellite not in orbit

BEIDOU-3 M15